This demonstration page uses our WeatherBlox Daily Observations layout. Learn more.

Left ArrowRight Arrow

41.86663, -103.66717

Hourly Observations for August 23, 2021

Temp ( °F °C ) Dew Point ( °F °C ) Humidity (%) Winds ( mph kmh ) Pressure ( in mb ) Visibility ( mi km ) Precip ( " mm )
12:53 am 00:53 Clear 56 13.3 45 7.2 67 67 undefined N/A 29.82 1010 7 11 N/A
1:53 am 01:53 Clear 54 12.2 46 7.8 75 75 WNW 7 11 29.84 1010 7 11 N/A
2:53 am 02:53 Clear 54 12.2 45 7.2 72 72 NW 5 7 29.82 1010 7 11 N/A
3:53 am 03:53 Clear 52 11.1 46 7.8 80 80 NNE 5 7 29.83 1010 7 11 N/A
4:53 am 04:53 Clear 51 10.6 43 6.1 74 74 NNW 5 7 29.83 1010 7 11 N/A
5:53 am 05:53 Clear 50 10 44 6.7 80 80 N N/A 29.85 1011 7 11 N/A
6:53 am 06:53 Hazy 53 11.7 45 7.2 74 74 NW 7 11 29.86 1011 5 8 N/A
7:53 am 07:53 Hazy 59 15 48 8.9 67 67 N N/A 29.88 1012 5 8 N/A
8:53 am 08:53 Hazy 68 20 51 10.6 55 55 NW 6 9 29.87 1012 5 8 N/A
9:53 am 09:53 Hazy 75 23.9 46 7.8 36 36 NW 8 13 29.85 1011 6 10 N/A
10:53 am 10:53 Sunny 81 27.2 51 10.6 35 35 WNW 5 7 29.83 1010 9 14 N/A
11:53 am 11:53 Sunny 87 30.6 53 11.7 31 31 N N/A 29.80 1009 10 16 N/A
12:53 pm 12:53 Sunny 92 33.3 55 12.8 29 29 E 6 9 29.77 1008 10 16 N/A
1:53 pm 13:53 Sunny 95 35 43 6.1 17 17 NE 5 7 29.75 1007 10 16 N/A
2:53 pm 14:53 Sunny 96 35.6 40 4.4 14 14 E 7 11 29.72 1007 10 16 N/A
3:53 pm 15:53 Sunny 95 35 39 3.9 14 14 E 8 13 29.71 1006 10 16 N/A
4:53 pm 16:53 Sunny 91 32.8 50 10 25 25 undefined N/A 29.71 1006 10 16 N/A
5:53 pm 17:53 Partly Cloudy 95 35 39 3.9 14 14 SW 14 22 29.70 1006 10 16 0.00 0.00
6:12 pm 18:12 Sunny 90 32 45 7 21 21 WNW 18 30 29.50 999 10 16 N/A
6:53 pm 18:53 Sunny 85 29.4 45 7.2 25 25 NW 10 17 29.73 1007 10 16 N/A
7:53 pm 19:53 Clear 79 26.1 48 8.9 34 34 N N/A 29.75 1007 10 16 N/A
8:39 pm 20:39 Partly Cloudy 82 27.8 45 7.2 27 27 NNW 12 19 29.60 1002 10 16 0.00 0.00
8:53 pm 20:53 Clear 78 25.6 47 8.3 33 33 ENE 7 11 29.74 1007 10 16 0.00 0.00
9:53 pm 21:53 Clear 79 26.1 46 7.8 31 31 NNW 8 13 29.75 1008 10 16 N/A
10:53 pm 22:53 Clear 72 22.2 47 8.3 41 41 ESE 9 15 29.77 1008 10 16 N/A
11:53 pm 23:53 Clear 69 20.6 49 9.4 49 49 SSE 9 15 29.77 1008 10 16 N/A

Powered by AerisWeather